ASA65 PAKT-PAWG

Flight info

Callsign ASA65
Flight time 0h 34m
Altitude 16000
Route DOOZI2 LVD
Aircraft B737/M-SDE2E3FGHIRWXY/LB1

Departure

Time 2026-04-30 08:15
Airport Ketchikan International Airport (PAKT)

Arrival

Time 2026-04-30 08:49
Airport Wrangell Airport (PAWG)
Time Latitude Longitude Altitude Speed Heading
2026-04-30 08:00 55.35650 -131.71122 41 ft 0 kts 46°
2026-04-30 08:02 55.35641 -131.71138 41 ft 2 kts 41°
2026-04-30 08:02 55.35630 -131.71151 39 ft 2 kts 356°
2026-04-30 08:03 55.35603 -131.71126 41 ft 2 kts 318°
2026-04-30 08:03 55.35600 -131.71122 39 ft 0 kts 319°
2026-04-30 08:07 55.35601 -131.71123 41 ft 1 kts 319°
2026-04-30 08:08 55.35616 -131.71157 39 ft 7 kts 309°
2026-04-30 08:08 55.35669 -131.71253 41 ft 13 kts 315°
2026-04-30 08:08 55.35735 -131.71369 50 ft 14 kts 314°
2026-04-30 08:08 55.35805 -131.71487 53 ft 14 kts 316°
2026-04-30 08:09 55.35870 -131.71605 59 ft 13 kts 314°
2026-04-30 08:09 55.35934 -131.71723 65 ft 13 kts 314°
2026-04-30 08:09 55.35995 -131.71837 77 ft 13 kts 314°
2026-04-30 08:09 55.36055 -131.71948 86 ft 12 kts 313°
2026-04-30 08:10 55.36114 -131.72059 92 ft 12 kts 313°
2026-04-30 08:10 55.36171 -131.72166 100 ft 12 kts 307°
2026-04-30 08:10 55.36182 -131.72247 101 ft 0 kts 261°
2026-04-30 08:12 55.36182 -131.72248 101 ft 1 kts 261°
2026-04-30 08:12 55.36179 -131.72273 100 ft 4 kts 256°
2026-04-30 08:12 55.36157 -131.72319 100 ft 7 kts 227°
2026-04-30 08:13 55.36118 -131.72345 99 ft 4 kts 155°
2026-04-30 08:13 55.36109 -131.72328 97 ft 0 kts 133°
2026-04-30 08:14 55.36109 -131.72327 97 ft 1 kts 133°
2026-04-30 08:14 55.36035 -131.72200 98 ft 46 kts 136°
2026-04-30 08:14 55.35621 -131.71491 96 ft 117 kts 136°
2026-04-30 08:14 55.34942 -131.70292 352 ft 148 kts 135°
2026-04-30 08:15 55.34233 -131.69028 1163 ft 145 kts 136°
2026-04-30 08:15 55.33514 -131.67788 1935 ft 146 kts 138°
2026-04-30 08:15 55.32711 -131.66430 2343 ft 178 kts 139°
2026-04-30 08:15 55.31739 -131.64793 2677 ft 209 kts 139°
2026-04-30 08:16 55.30628 -131.62930 3166 ft 227 kts 140°
2026-04-30 08:16 55.29331 -131.61337 4089 ft 227 kts 158°
2026-04-30 08:16 55.27806 -131.60654 4728 ft 226 kts 177°
2026-04-30 08:16 55.26233 -131.60886 5293 ft 231 kts 194°
2026-04-30 08:17 55.24732 -131.61906 6268 ft 233 kts 209°
2026-04-30 08:17 55.23430 -131.63603 7250 ft 236 kts 224°
2026-04-30 08:17 55.22431 -131.65901 8224 ft 240 kts 239°
2026-04-30 08:17 55.21830 -131.68657 9195 ft 246 kts 255°
2026-04-30 08:18 55.21707 -131.71673 10233 ft 253 kts 271°
2026-04-30 08:18 55.22100 -131.74678 11150 ft 262 kts 288°
2026-04-30 08:18 55.22993 -131.77512 12010 ft 273 kts 299°
2026-04-30 08:18 55.24075 -131.80448 12330 ft 302 kts 298°
2026-04-30 08:19 55.25255 -131.83693 12742 ft 325 kts 298°
2026-04-30 08:19 55.26532 -131.87022 13659 ft 333 kts 307°
2026-04-30 08:19 55.27687 -131.88904 14378 ft 338 kts 322°
2026-04-30 08:20 55.32263 -131.92831 15895 ft 342 kts 333°
2026-04-30 08:20 55.34459 -131.94516 15994 ft 348 kts 333°
2026-04-30 08:20 55.36670 -131.96216 15994 ft 345 kts 333°
2026-04-30 08:20 55.38832 -131.97898 16000 ft 344 kts 333°
2026-04-30 08:21 55.41020 -131.99618 16001 ft 344 kts 333°
2026-04-30 08:21 55.43202 -132.01347 15999 ft 344 kts 333°
2026-04-30 08:21 55.45388 -132.03087 15991 ft 344 kts 333°
2026-04-30 08:21 55.47571 -132.04828 15974 ft 344 kts 332°
2026-04-30 08:22 55.49751 -132.06575 15985 ft 344 kts 333°
2026-04-30 08:22 55.51934 -132.08326 15969 ft 345 kts 333°
2026-04-30 08:22 55.54116 -132.10078 15978 ft 345 kts 332°
2026-04-30 08:22 55.56297 -132.11838 15988 ft 345 kts 332°
2026-04-30 08:23 55.58479 -132.13600 15984 ft 345 kts 332°
2026-04-30 08:23 55.60670 -132.15366 15942 ft 344 kts 333°
2026-04-30 08:23 55.62845 -132.17117 15969 ft 344 kts 332°
2026-04-30 08:23 55.64976 -132.19024 15957 ft 342 kts 327°
2026-04-30 08:24 55.67027 -132.21157 15970 ft 342 kts 325°
2026-04-30 08:24 55.69056 -132.23365 15965 ft 342 kts 324°
2026-04-30 08:24 55.71083 -132.25591 15962 ft 342 kts 324°
2026-04-30 08:24 55.73105 -132.27814 15966 ft 342 kts 324°
2026-04-30 08:25 55.75136 -132.30028 15968 ft 343 kts 324°
2026-04-30 08:25 55.77172 -132.32233 15967 ft 343 kts 325°
2026-04-30 08:25 55.79209 -132.34430 15965 ft 343 kts 325°
2026-04-30 08:25 55.81250 -132.36624 15961 ft 343 kts 325°
2026-04-30 08:26 55.83288 -132.38814 15961 ft 343 kts 325°
2026-04-30 08:26 55.85326 -132.41004 15961 ft 342 kts 325°
2026-04-30 08:26 55.87367 -132.43199 15959 ft 342 kts 325°
2026-04-30 08:26 55.89404 -132.45392 15962 ft 342 kts 325°
2026-04-30 08:27 55.91439 -132.47585 15951 ft 342 kts 325°
2026-04-30 08:27 55.93473 -132.49780 15954 ft 342 kts 325°
2026-04-30 08:27 55.95507 -132.51977 15959 ft 342 kts 325°
2026-04-30 08:27 55.97540 -132.54176 15962 ft 342 kts 325°
2026-04-30 08:28 55.99570 -132.56374 15954 ft 341 kts 325°
2026-04-30 08:28 56.01597 -132.58570 15952 ft 340 kts 325°
2026-04-30 08:28 56.03620 -132.60765 15949 ft 340 kts 325°
2026-04-30 08:28 56.05662 -132.62883 15945 ft 341 kts 331°
2026-04-30 08:29 56.07838 -132.64477 15708 ft 345 kts 336°
2026-04-30 08:29 56.10098 -132.65951 15353 ft 346 kts 337°
2026-04-30 08:29 56.12355 -132.67386 14946 ft 342 kts 337°
2026-04-30 08:29 56.14594 -132.68803 14501 ft 340 kts 337°
2026-04-30 08:30 56.16819 -132.70202 14046 ft 338 kts 338°
2026-04-30 08:30 56.19031 -132.71589 13545 ft 335 kts 338°
2026-04-30 08:30 56.21224 -132.72964 13102 ft 332 kts 338°
2026-04-30 08:30 56.23390 -132.74327 12653 ft 329 kts 338°
2026-04-30 08:31 56.25538 -132.75689 12218 ft 326 kts 338°
2026-04-30 08:31 56.27667 -132.77049 11785 ft 324 kts 338°
2026-04-30 08:31 56.29775 -132.78405 11362 ft 321 kts 338°
2026-04-30 08:31 56.31863 -132.79777 10926 ft 317 kts 334°
2026-04-30 08:32 56.33654 -132.81950 10535 ft 307 kts 309°
2026-04-30 08:32 56.34741 -132.85152 10173 ft 294 kts 284°
2026-04-30 08:32 56.35254 -132.88611 10060 ft 279 kts 281°
2026-04-30 08:32 56.36124 -132.91700 9788 ft 279 kts 307°
2026-04-30 08:33 56.37674 -132.93740 9450 ft 278 kts 336°
2026-04-30 08:33 56.39530 -132.94504 9112 ft 280 kts 351°
2026-04-30 08:33 56.41490 -132.94937 8815 ft 279 kts 354°
2026-04-30 08:33 56.43397 -132.94544 8557 ft 276 kts 21°
2026-04-30 08:34 56.44937 -132.92692 8374 ft 268 kts 49°
2026-04-30 08:34 56.46090 -132.90049 7996 ft 269 kts 56°
2026-04-30 08:34 56.47178 -132.87297 7666 ft 269 kts 57°
2026-04-30 08:34 56.48252 -132.84547 7366 ft 267 kts 57°
2026-04-30 08:35 56.49314 -132.81805 7080 ft 265 kts 57°
2026-04-30 08:35 56.50365 -132.79071 6769 ft 265 kts 58°
2026-04-30 08:35 56.51407 -132.76356 6566 ft 256 kts 57°
2026-04-30 08:35 56.52390 -132.73794 6229 ft 243 kts 57°
2026-04-30 08:36 56.53333 -132.71324 5780 ft 235 kts 58°
2026-04-30 08:36 56.54265 -132.68914 5312 ft 231 kts 58°
2026-04-30 08:36 56.55183 -132.66550 4873 ft 227 kts 59°
2026-04-30 08:36 56.55724 -132.63961 4409 ft 216 kts 85°
2026-04-30 08:37 56.55920 -132.61305 3953 ft 211 kts 88°
2026-04-30 08:37 56.55739 -132.58761 3467 ft 200 kts 116°
2026-04-30 08:37 56.55144 -132.56547 3064 ft 190 kts 126°
2026-04-30 08:37 56.54453 -132.54640 2992 ft 173 kts 127°
2026-04-30 08:38 56.53813 -132.52925 2976 ft 156 kts 128°
2026-04-30 08:38 56.53226 -132.51319 2984 ft 151 kts 128°
2026-04-30 08:38 56.52672 -132.49724 3007 ft 150 kts 124°
2026-04-30 08:38 56.52174 -132.48058 2736 ft 154 kts 124°
2026-04-30 08:39 56.51694 -132.46317 2429 ft 145 kts 120°
2026-04-30 08:39 56.51210 -132.44847 2175 ft 133 kts 125°
2026-04-30 08:39 56.50713 -132.43456 1781 ft 131 kts 124°
2026-04-30 08:39 56.50226 -132.42101 1357 ft 129 kts 124°
2026-04-30 08:40 56.49701 -132.40741 900 ft 130 kts 121°
2026-04-30 08:40 56.49265 -132.39416 740 ft 119 kts 118°
2026-04-30 08:40 56.48821 -132.37993 1142 ft 133 kts 118°
2026-04-30 08:40 56.48339 -132.36549 2004 ft 133 kts 124°
2026-04-30 08:41 56.47856 -132.35071 2601 ft 153 kts 123°
2026-04-30 08:41 56.47222 -132.33106 2588 ft 186 kts 122°
2026-04-30 08:41 56.46558 -132.31055 3085 ft 192 kts 123°
2026-04-30 08:41 56.45883 -132.28939 3540 ft 201 kts 122°
2026-04-30 08:42 56.45090 -132.26781 4039 ft 210 kts 138°
2026-04-30 08:42 56.43836 -132.25597 4513 ft 206 kts 171°
2026-04-30 08:42 56.42395 -132.25327 4960 ft 209 kts 177°
2026-04-30 08:42 56.40942 -132.25151 4989 ft 209 kts 178°
2026-04-30 08:43 56.39494 -132.25034 4993 ft 208 kts 186°
2026-04-30 08:43 56.38166 -132.25989 5001 ft 210 kts 219°
2026-04-30 08:43 56.37386 -132.28195 5008 ft 215 kts 253°
2026-04-30 08:43 56.37444 -132.30906 5025 ft 224 kts 286°
2026-04-30 08:44 56.38164 -132.33450 4876 ft 233 kts 296°
2026-04-30 08:44 56.39002 -132.35977 4505 ft 235 kts 297°
2026-04-30 08:44 56.39851 -132.38514 4155 ft 236 kts 297°
2026-04-30 08:44 56.40692 -132.41027 3820 ft 231 kts 297°
2026-04-30 08:45 56.41516 -132.43478 3464 ft 226 kts 297°
2026-04-30 08:45 56.42332 -132.45893 3115 ft 225 kts 298°
2026-04-30 08:45 56.43112 -132.48209 2990 ft 202 kts 297°
2026-04-30 08:45 56.43802 -132.50233 2974 ft 178 kts 297°
2026-04-30 08:46 56.44660 -132.51685 2973 ft 170 kts 338°
2026-04-30 08:46 56.45816 -132.51722 2933 ft 169 kts 18°
2026-04-30 08:46 56.46867 -132.50804 2686 ft 164 kts 30°
2026-04-30 08:46 56.47859 -132.49843 2371 ft 157 kts 29°
2026-04-30 08:47 56.48685 -132.48918 2254 ft 135 kts 39°
2026-04-30 08:47 56.49412 -132.47742 1791 ft 139 kts 51°
2026-04-30 08:47 56.49885 -132.46355 1492 ft 127 kts 64°
2026-04-30 08:47 56.50355 -132.44969 1049 ft 127 kts 64°
2026-04-30 08:48 56.50460 -132.43430 703 ft 121 kts 102°
2026-04-30 08:48 56.50123 -132.42091 508 ft 116 kts 120°
2026-04-30 08:48 56.49722 -132.40839 336 ft 114 kts 120°
2026-04-30 08:48 56.49307 -132.39633 222 ft 111 kts 121°
2026-04-30 08:49 56.48917 -132.38443 72 ft 108 kts 120°
2026-04-30 08:49 56.48572 -132.37406 28 ft 63 kts 122°
2026-04-30 08:49 56.48441 -132.37022 28 ft 30 kts 122°
2026-04-30 08:49 56.48336 -132.36710 27 ft 28 kts 121°
2026-04-30 08:50 56.48237 -132.36420 27 ft 22 kts 121°
2026-04-30 08:50 56.48169 -132.36216 30 ft 11 kts 121°
2026-04-30 08:50 56.48137 -132.36111 29 ft 8 kts 117°
2026-04-30 08:50 56.48114 -132.36034 30 ft 7 kts 118°
2026-04-30 08:51 56.48087 -132.35966 29 ft 7 kts 127°
2026-04-30 08:51 56.48054 -132.35908 30 ft 7 kts 157°
2026-04-30 08:51 56.48002 -132.35854 28 ft 11 kts 125°
2026-04-30 08:51 56.47996 -132.35800 29 ft 0 kts 86°
2026-04-30 08:52 56.48000 -132.35793 29 ft 1 kts 43°
2026-04-30 08:52 56.48012 -132.35795 29 ft 3 kts 352°
2026-04-30 08:53 56.48038 -132.35832 29 ft 6 kts 312°
2026-04-30 08:53 56.48068 -132.35916 30 ft 10 kts 301°
2026-04-30 08:53 56.48112 -132.36045 30 ft 15 kts 300°
2026-04-30 08:53 56.48173 -132.36228 30 ft 19 kts 302°
2026-04-30 08:54 56.48251 -132.36457 27 ft 23 kts 301°
2026-04-30 08:54 56.48342 -132.36727 27 ft 26 kts 302°
2026-04-30 08:54 56.48434 -132.37000 28 ft 25 kts 301°
2026-04-30 08:54 56.48522 -132.37259 28 ft 23 kts 301°
2026-04-30 08:55 56.48604 -132.37502 27 ft 22 kts 301°
2026-04-30 08:55 56.48671 -132.37707 26 ft 16 kts 295°
2026-04-30 08:55 56.48637 -132.37867 27 ft 13 kts 214°
2026-04-30 08:55 56.48585 -132.37907 28 ft 6 kts 162°
2026-04-30 08:56 56.48553 -132.37859 28 ft 6 kts 140°
2026-04-30 08:56 56.48530 -132.37858 28 ft 0 kts 215°
2026-04-30 08:56 56.48531 -132.37863 28 ft 0 kts 254°
2026-04-30 08:56 56.48532 -132.37877 28 ft 2 kts 276°
2026-04-30 08:57 56.48536 -132.37912 28 ft 3 kts 284°
2026-04-30 08:57 56.48537 -132.37920 28 ft 0 kts 284°